{"data":{"norad_id":52486,"epoch":"2026-05-25T04:34:35.557248Z","epoch_age_seconds":55640,"freshness":"FRESH","line1":"1 52486U 22049AM  26145.19068932  .00000419  00000+0  44426-4 0  9995","line2":"2 52486  53.2135  75.6912 0001386  96.1362 263.9788 15.08840136223805","mean_motion":15.08840136,"eccentricity":0.0001386,"inclination_deg":53.2135,"raan_deg":75.6912,"arg_perigee_deg":96.1362,"mean_anomaly_deg":263.9788,"bstar":4.4426e-5,"rev_number":22380,"period_min":95.437546075458,"perigee_km":538.78415510225,"apogee_km":540.70179143084,"semimajor_km":6917.8799732665,"source":"CELESTRAK","updated_at":"2026-05-25T13:38:17.156662Z"}}